User: anonymous   Login
Location: London
(51.5074°N, 0.1278°W)
Time: 00:34:37
(UTC+01:00)
Language:

AIST 2D - Orbit

View from above orbital plane
View from above orbital plane
View from above satellite
View from above satellite

Ground track
Ground track

The orbit data is extracted from the following two-line orbital elements,

1 41465U 16026B   20275.82918895  .00002644  00000-0  80066-4 0  9991
2 41465  97.1358 162.4532 0009929 220.9088 203.5893 15.34982682247748
Epoch (UTC): 01 October 2020 19:54:01
Eccentricity: 0.0009929
inclination: 97.1358°
perigee height: 454 km
apogee height: 468 km
right ascension of ascending node: 162.4532°
argument of perigee: 220.9088°
revolutions per day: 15.34982682
mean anomaly at epoch: 203.5893°
orbit number at epoch: 24774

The dashed part of the orbit path shows where the satellite is in the earth's shadow,  

DLR